Location: C�mpuri de-Sus
(45.9500°N, 22.5500°E)
Time: 18:51:08
(UTC+00:00)

Cosmos 839 Rocket - Pass Details

Date: 03 December 2023
Orbit: 960 x 2093 km, 65.9° (Epoch: 20 February)

Event Time Altitude Azimuth Distance (km) Brightness Sun altitude
Exits shadow 04:11:09 18° 262° (W) 3,972 6.6 -17.0°
Maximum altitude 04:20:13 44° 325° (NW) 2,682 5.9 -15.5°
Drops below altitude 10° 04:31:06 10° 35° (NE) 4,298 7.5 -13.7°
Sets 04:34:31 0° 42° (NE) 5,170 8.1 -13.1°
